TimeEDT,TemperatureF,Dew PointF,Humidity,Sea Level PressureIn,VisibilityMPH,Wind Direction,Wind SpeedMPH,Gust SpeedMPH,PrecipitationIn,Events,Conditions,WindDirDegrees,DateUTC
12:53 AM,80.1,75.0,85,30.01,10.0,East,11.5,-,N/A,,Clear,100,2013-05-31 04:53:00
1:18 AM,80.6,75.2,84,30.00,10.0,ESE,12.7,-,N/A,,Mostly Cloudy,110,2013-05-31 05:18:00
1:27 AM,80.6,75.2,84,30.00,10.0,ESE,12.7,-,N/A,,Scattered Clouds,110,2013-05-31 05:27:00
1:53 AM,80.1,75.0,85,29.99,10.0,ESE,12.7,-,N/A,,Mostly Cloudy,110,2013-05-31 05:53:00
2:00 AM,80.6,75.2,84,29.99,10.0,ESE,11.5,-,N/A,,Mostly Cloudy,110,2013-05-31 06:00:00
2:29 AM,80.6,75.2,84,29.99,10.0,East,12.7,-,N/A,,Mostly Cloudy,100,2013-05-31 06:29:00
2:53 AM,79.0,75.0,88,29.99,10.0,East,11.5,-,N/A,,Overcast,100,2013-05-31 06:53:00
3:27 AM,80.6,73.4,79,29.98,10.0,ESE,10.4,-,N/A,,Mostly Cloudy,110,2013-05-31 07:27:00
3:53 AM,80.1,75.0,85,29.97,10.0,East,10.4,-,N/A,,Clear,100,2013-05-31 07:53:00
4:53 AM,79.0,73.0,82,29.99,10.0,ENE,5.8,-,N/A,,Scattered Clouds,70,2013-05-31 08:53:00
5:43 AM,78.8,73.4,83,29.99,10.0,East,9.2,-,N/A,,Mostly Cloudy,100,2013-05-31 09:43:00
5:51 AM,78.8,73.4,83,29.99,10.0,East,8.1,-,N/A,,Scattered Clouds,100,2013-05-31 09:51:00
5:53 AM,79.0,73.9,84,29.99,10.0,ESE,6.9,-,N/A,,Scattered Clouds,110,2013-05-31 09:53:00
6:53 AM,80.1,72.0,76,30.01,10.0,ESE,9.2,-,N/A,,Mostly Cloudy,120,2013-05-31 10:53:00
7:53 AM,81.0,72.0,74,30.01,10.0,ESE,6.9,-,N/A,,Partly Cloudy,110,2013-05-31 11:53:00
8:53 AM,82.0,75.9,82,30.02,10.0,ESE,8.1,-,N/A,,Partly Cloudy,110,2013-05-31 12:53:00
9:53 AM,84.0,75.9,76,30.02,10.0,East,9.2,-,N/A,,Clear,90,2013-05-31 13:53:00
10:53 AM,84.0,75.9,76,30.02,10.0,East,8.1,-,N/A,,Clear,90,2013-05-31 14:53:00
11:53 AM,84.9,75.9,74,30.03,10.0,East,8.1,-,N/A,,Clear,100,2013-05-31 15:53:00
12:53 PM,84.9,75.9,74,30.03,10.0,East,10.4,-,N/A,,Clear,100,2013-05-31 16:53:00
1:53 PM,84.9,77.0,77,30.02,10.0,East,10.4,-,N/A,,Clear,100,2013-05-31 17:53:00
2:53 PM,86.0,75.9,72,30.01,10.0,ESE,9.2,-,N/A,,Clear,110,2013-05-31 18:53:00
3:53 PM,86.0,75.9,72,29.99,10.0,East,8.1,-,N/A,,Clear,100,2013-05-31 19:53:00
4:53 PM,84.0,75.9,76,29.99,10.0,SE,11.5,-,N/A,,Clear,130,2013-05-31 20:53:00
5:53 PM,84.0,73.0,69,29.98,10.0,East,9.2,-,N/A,,Scattered Clouds,100,2013-05-31 21:53:00
6:53 PM,82.0,73.0,74,29.99,10.0,East,10.4,-,N/A,,Mostly Cloudy,100,2013-05-31 22:53:00
7:46 PM,80.6,73.4,79,29.99,10.0,ESE,5.8,-,N/A,,Scattered Clouds,110,2013-05-31 23:46:00
7:53 PM,81.0,73.0,77,29.99,10.0,ESE,8.1,-,N/A,,Partly Cloudy,120,2013-05-31 23:53:00
8:53 PM,82.0,73.0,74,30.01,10.0,ESE,6.9,-,N/A,,Overcast,110,2013-06-01 00:53:00
9:53 PM,81.0,73.0,77,30.02,10.0,ESE,6.9,-,N/A,,Mostly Cloudy,120,2013-06-01 01:53:00
10:53 PM,81.0,73.9,79,30.03,10.0,SE,5.8,-,N/A,,Clear,130,2013-06-01 02:53:00
11:53 PM,81.0,75.0,82,30.01,10.0,SE,4.6,-,N/A,,Clear,140,2013-06-01 03:53:00